Snowfall_Accumulation
0.0 0.0 0.0 0.0 0.0 0.0 0.0 0.0 9.6 0.0 0.0 0.2 13.1 9.5 3.0 0.0 0.0 0.0 0.0 0.0 0.9 1.6 1.3 1.7 5.7 7.0 1.8 0.2 0.0 0.3 0.4 12.1 15.5 10.8 5.5 4.8 6.6 9.7 11.2 24.3 18.4 12.2 12.4 15.1
0.0 0.0 0.0 0.0 0.0 0.0 0.0 0.0 1.9 0.0 0.0 12.2 6.9 0.0 2.1 3.9 0.0 0.0 0.0 0.2 0.1 0.1 1.6 2.5 1.1 3.0 0.1 0.0 0.0 2.2 1.0 8.7 13.8 12.3 7.2 1.8 9.9 8.8 10.8 13.9 18.4 20.5 18.0 17.8
0.0 0.0 0.0 0.0 0.0 0.0 0.0 0.0 12.1 0.0 0.0 0.0 2.7 4.8 6.4 2.2 0.0 0.0 0.1 0.6 0.0 1.3 0.3 0.1 1.4 6.8 0.3 0.0 0.1 0.8 2.9 9.6 13.0 12.6 10.1 8.3 12.1 6.2 10.1 19.1 21.9 12.9 17.8 12.1
0.0 0.0 0.0 0.0 0.0 0.0 0.0 0.1 7.3 0.1 5.1 3.1 0.1 0.5 1.1 0.6 2.7 0.0 0.0 0.0 1.2 5.5 3.9 0.7 0.3 3.6 2.8 0.0 0.0 0.1 0.9 13.7 5.8 4.4 2.5 4.4 6.2 6.2 6.8 14.7 10.5 11.3 9.6 6.4
0.0 0.0 0.0 0.0 0.0 0.0 0.0 2.7 3.9 1.7 0.1 0.0 0.2 0.8 0.8 0.7 0.1 0.8 0.9 0.9 0.3 2.3 4.1 5.1 3.2 2.0 3.7 3.7 0.0 0.1 0.8 8.0 7.0 5.8 0.2 2.5 4.3 0.9 2.4 2.5 4.5 5.5 3.5 4.3
0.0 0.0 0.0 0.0 0.0 0.0 0.1 0.4 0.3 6.2 0.7 0.7 1.7 2.9 0.7 0.3 0.7 0.1 0.3 0.8 2.3 1.4 1.1 0.7 0.3 0.2 0.2 0.9 0.7 0.6 1.4 5.9 8.2 6.7 2.7 0.9 4.2 4.7 1.5 2.9 3.4 3.5 6.0 4.2
0.0 0.0 0.0 0.0 0.0 0.0 0.0 0.2 2.7 10.4 6.9 1.4 1.8 1.2 0.4 0.2 0.3 1.1 0.0 0.5 2.4 0.2 0.1 0.0 0.0 0.0 0.2 0.5 0.5 0.4 0.4 3.2 7.1 5.7 1.6 4.2 1.4 0.0 0.5 0.8 2.3 1.7 1.8 2.0
0.0 0.0 0.0 0.0 0.0 0.0 0.0 0.0 3.8 12.8 11.5 1.5 0.7 0.3 0.0 0.1 0.0 0.1 0.1 0.1 0.5 0.0 0.3 3.0 2.1 0.4 0.3 0.3 0.1 0.2 0.6 3.2 9.4 7.0 2.5 0.9 0.1 0.4 0.4 1.9 1.2 0.3 0.8 0.3
0.0 0.0 0.0 0.0 0.0 0.0 0.0 0.0 0.0 10.1 14.0 2.2 1.4 0.8 0.3 1.6 1.2 0.0 0.1 0.0 0.0 0.0 3.1 4.7 5.2 4.2 0.8 0.8 0.0 0.1 0.6 2.2 5.1 4.4 5.6 1.5 1.7 0.0 0.0 0.1 1.7 0.1 0.2 0.5
0.0 0.0 0.0 0.0 0.0 0.0 0.0 0.0 0.0 14.9 20.1 2.0 1.3 2.5 4.1 2.4 3.6 6.4 0.6 1.0 1.9 0.1 3.2 6.8 5.7 2.1 0.6 2.3 0.9 0.6 0.9 3.5 6.0 3.6 6.1 1.7 0.1 0.1 0.0 1.4 1.7 0.1 0.1 0.4
0.0 0.0 0.0 0.0 0.0 0.0 0.0 0.3 0.0 13.3 20.2 5.4 0.6 2.8 5.6 6.5 6.3 9.0 1.9 3.5 4.2 6.6 8.0 6.6 3.3 3.8 2.8 2.1 0.9 2.7 5.0 6.0 3.3 2.9 3.8 2.0 0.3 0.8 2.5 2.7 1.2 0.1 0.6 0.3
0.0 0.0 0.0 0.0 0.0 0.0 0.0 2.4 0.0 0.0 15.5 6.0 0.0 0.0 0.0 6.0 6.4 9.7 6.9 4.1 2.3 6.5 8.4 8.4 6.0 4.0 3.8 2.5 2.3 2.1 5.8 5.2 5.9 4.2 1.9 1.2 1.8 5.2 4.8 5.0 5.4 2.5 3.0 1.1
0.0 0.0 0.0 0.0 0.0 0.0 0.0 0.0 0.0 0.0 9.3 3.5 1.0 1.6 0.0 0.0 0.0 0.3 17.5 1.7 6.9 6.7 5.5 11.1 9.8 7.5 2.1 2.4 4.0 2.6 1.4 2.1 5.1 5.8 3.9 3.9 5.0 5.4 4.9 5.5 6.6 5.7 4.6 3.1
0.0 0.0 0.0 0.0 0.0 0.0 0.0 0.0 0.0 0.5 4.7 7.8 2.3 0.1 0.1 0.0 0.0 0.0 0.4 8.2 4.9 7.9 5.7 19.9 12.3 7.7 2.3 3.8 5.1 3.9 4.0 2.7 3.4 3.5 6.2 6.1 3.2 5.7 6.8 6.4 4.9 7.0 6.7 6.3
0.0 0.0 0.0 0.0 0.0 0.0 0.0 0.0 0.0 0.0 5.1 5.9 1.5 0.2 0.0 0.0 0.0 0.0 0.1 5.3 12.4 18.4 21.6 20.9 15.5 6.5 6.6 6.7 2.9 8.0 10.5 13.7 15.1 10.4 9.6 15.9 12.8 10.8 8.7 8.6 11.8 14.8 10.8 7.8
0.0 0.0 0.0 0.0 0.0 0.0 0.0 0.6 0.0 0.0 0.2 11.3 4.7 0.0 0.0 0.0 0.1 0.5 0.9 3.8 10.9 16.7 18.2 15.9 13.3 9.1 8.4 11.5 9.1 9.1 11.1 13.1 18.5 20.7 16.8 17.9 17.8 16.6 16.4 18.8 18.4 16.3 16.0 15.3
0.0 0.0 0.0 0.0 0.0 0.0 1.1 0.4 0.1 0.0 0.1 11.0 8.7 1.2 0.0 0.0 0.9 1.8 2.5 3.9 7.6 12.0 12.3 11.1 7.1 7.0 8.3 10.4 12.9 14.0 14.5 18.2 16.9 17.7 14.4 13.9 19.1 25.3 21.2 20.2 21.5 15.2 15.0 14.8
0.0 0.0 0.0 0.0 0.0 0.0 0.4 0.4 0.5 0.4 0.8 7.2 18.1 3.2 0.2 1.6 4.5 5.1 2.7 5.2 3.9 7.3 8.1 7.4 5.3 5.2 7.7 14.1 11.7 12.0 12.1 10.1 11.6 14.7 15.3 19.3 15.0 12.9 13.8 13.6 10.6 7.0 8.3 7.8
0.0 0.0 0.0 0.0 0.0 1.4 0.6 0.0 0.3 1.1 0.7 18.3 9.7 5.6 4.4 0.4 1.5 3.6 4.6 3.7 15.0 7.3 8.6 4.8 5.1 8.2 15.6 15.6 13.9 12.0 12.0 14.6 17.2 11.4 8.3 6.5 6.6 6.1 5.4 3.5 3.4 3.8 4.3 2.9
0.0 0.0 0.0 5.1 0.1 0.0 0.7 0.4 8.0 13.8 13.0 12.8 5.7 1.5 6.7 1.6 2.1 5.6 9.0 7.4 9.0 15.2 6.1 1.9 9.2 10.8 9.8 10.6 12.9 12.1 10.3 9.2 7.0 5.0 5.3 3.6 2.6 1.4 0.9 0.5 0.2 0.6 0.6 0.4
0.0 4.0 3.9 0.3 0.3 0.1 4.9 14.2 13.3 10.6 14.9 6.9 3.9 2.3 5.0 1.7 13.0 11.9 7.9 15.5 7.1 11.0 6.1 6.5 7.1 7.2 10.1 9.0 8.2 5.4 4.2 3.7 2.8 1.6 1.5 0.5 0.9 0.7 0.3 0.1 0.0 0.1 0.1 0.4
0.0 0.5 1.0 1.5 8.7 10.4 12.1 9.9 7.3 8.4 7.7 3.8 3.6 3.0 4.9 7.4 8.2 15.8 13.3 13.0 14.6 10.3 3.7 10.0 6.7 9.2 7.6 6.8 4.9 3.5 2.5 2.6 0.3 0.3 0.1 0.0 0.2 0.0 0.1 0.3 0.5 1.0 0.8 0.6
2.9 4.3 15.0 12.1 11.1 14.0 8.9 3.2 4.6 6.9 6.5 5.0 5.2 8.5 5.7 6.7 11.8 14.0 16.7 19.6 14.5 8.2 15.1 9.2 9.2 9.3 6.7 5.2 3.3 1.3 1.0 0.7 0.7 0.7 0.6 0.2 0.2 0.2 0.5 0.8 0.2 0.6 0.6 0.4
10.3 32.1 23.2 8.8 7.4 3.8 5.1 4.7 4.8 3.1 2.9 3.3 6.1 6.6 6.6 4.6 10.5 11.5 14.3 10.4 9.0 10.5 8.0 7.8 11.5 8.9 5.2 2.6 2.7 2.9 2.2 0.9 1.3 1.1 1.0 0.8 0.4 0.3 0.2 0.7 1.2 1.2 0.7 0.7
32.7 22.8 12.5 3.6 1.1 1.3 2.0 2.7 2.8 2.3 2.8 6.1 4.9 3.5 4.1 4.5 7.5 7.6 9.4 10.2 6.1 6.0 9.5 10.9 9.4 8.8 7.0 4.4 4.7 5.5 7.4 5.5 5.4 3.6 3.1 2.8 2.3 2.1 2.0 1.4 1.3 1.1 0.7 0.7
32.9 20.6 6.1 0.4 0.5 0.7 0.9 1.3 1.9 0.7 1.7 2.3 4.6 7.0 6.3 4.3 5.3 7.3 4.1 4.6 7.9 10.9 9.6 5.4 4.1 4.7 4.8 3.4 3.6 4.6 6.2 6.5 7.3 4.8 3.8 3.1 4.1 3.9 3.7 2.4 2.0 1.8 1.6 1.6
34.8 8.6 0.0 0.8 0.9 1.5 1.3 1.1 1.3 1.3 3.8 6.2 11.2 14.1 5.3 7.6 7.2 4.6 3.9 7.8 8.6 6.9 4.4 3.7 3.9 4.8 3.6 2.2 1.0 2.1 2.4 2.4 2.0 1.8 2.1 2.2 1.4 1.5 1.4 1.5 2.2 2.1 1.9 1.3